Showing default

IMPULSE-1 MIRA, 58301

Orbit data source: Space-Track

IMPULSE-1 MIRA, 58301 is a payload satellite owned by Impulse Space (US) in SSO that was launched on Sat, 11 Nov 2023 UTC via an FALCON 9 launch vehicle from the Air Force Western Test Range (AFWTR). Payload-class satellites include a variety of spacecraft equipped with specific instruments for various scientific and technological missions. These include communications satellites like Starlink; space stations such as the ISS; scientific satellites like the Hubble; Earth observation satellites from companies like Planet Labs, Umbra, and HawkEye 360; GPS; miniature CubeSats for education and research; and military/defense satellites.

Loading next visibility...
Identifier
58301, 2023-174AX
Orbit
SSO
Country
Flag of USUS
Related business
Manufacturer
Impulse Space
Mission
Operational Commercial Technology
Bus & Motor
MIRA, AOCS
Mass
250 kg wet, 200 kg dry
Launch date (UTC)
2023-11-11 (3 years ago)
Launch vehicle
FALCON 9
Launch site
Air Force Western Test Range (AFWTR)
Object type
Payload
Rocket body
Debris
Shape & HBR
Box, 1.2 m
Radar Cross Section
0.575 m², Large (>1 m²)

Expand to show TLE details & history
Last TLE update: 9 hours ago

TLE from 9 hours ago
0 IMPULSE-1 MIRA
1 58301U 23174AX  26176.51772730  .00018298  00000-0  48567-3 0  9999
2 58301  97.5194 262.1686 0073814  92.5657 268.4038 15.35546348146176
Epoch: 2026-06-25T12:25Z
TLE epoch observation values (Epoch: 2026-06-25T12:25:31.638Z)
Latitude
-0.00012°
Longitude
162.12735°
Altitude
464.185 km
Speed
7.633 km/s
True Right ascension
17h 28m 40s
True Declination
0° 00' 00"
Sunlit
Object was in full shadow at epoch
Visualization orbit readout
Latitude
Unknown
Longitude
Unknown
Altitude
Unknown
Speed
Unknown
Apparent Right ascension
Unknown
Apparent Declination
Unknown
Sunlit
N/A
Visualization observer readout
Local Sidereal Time
08:43:55
Azimuth
Unknown
Elevation
Unknown
Doppler factor
Unknown
Orbital elements
Apogee altitude
506.695 km
Perigee altitude
405.801 km
Semi-major axis
6,834.385 km
Eccentricity
0.00738
Inclination
97.5194°
RAAN
262.1686°
Arg. of periapsis
92.5657°
True anomaly
267.55853°
Mean anomaly
268.4038°
Eccentric anomaly
267.98114°
Mean motion
3.84144 °/min
Orbital period
93.71 mins
BSTAR
0.00048567
Loading maneuver chart data...
Computing Atmospheric mass density...
Loading historical data...
Loading historical data...
Loading historical data...
Loading historical data...
Loading historical data...
Loading historical data...
Loading historical data...

Documentation

Showing up to 5 results
|